This demonstration page uses our WeatherBlox Daily Observations layout. Learn more.

38.89511, -77.03637

Hourly Observations for April 12, 2015

Temp ( °F °C ) Dew Point ( °F °C ) Humidity (%) Winds ( mph kmh ) Pressure ( in mb ) Visibility ( mi km ) Precip ( " mm )
12:52 am 00:52 Clear 53 11.7 30 -1.1 41 41 N 7 11 30.26 1025 10 16.0934 0 0
1:52 am 01:52 Clear 52 11.1 30 -1.1 43 43 NNW 7 11 30.27 1025 10 16.0934 0 0
2:52 am 02:52 Clear 52 11.1 32 0 47 47 ENE 8 13 30.27 1025 10 16.0934 0 0
3:52 am 03:52 Clear 51 10.6 31 -0.6 46 46 Calm 30.29 1026 10 16.0934 0 0
4:52 am 04:52 Clear 49 9.4 32 0 52 52 Calm 30.31 1026 10 16.0934 0 0
5:52 am 05:52 Clear 45 7.2 32 0 61 61 SW 6 9 30.33 1027 10 16.0934 0 0
6:52 am 06:52 Mostly Sunny 46 7.8 31 -0.6 56 56 SW 3 6 30.36 1028 10 16.0934 0 0
7:52 am 07:52 Mostly Sunny 51 10.6 34 1.1 52 52 Calm 30.38 1029 10 16.0934 0 0
8:52 am 08:52 Mostly Sunny 53 11.7 35 1.7 51 51 Calm 30.38 1029 10 16.0934 0 0
9:52 am 09:52 Mostly Sunny 58 14.4 34 1.1 41 41 Calm 30.38 1029 10 16.0934 0 0
10:52 am 10:52 Partly Cloudy 63 17.2 31 -0.6 30 30 Calm 30.39 1029 10 16.0934 0 0
11:52 am 11:52 Mostly Cloudy 64 17.8 28 -2.2 26 26 Calm 30.38 1029 10 16.0934 0 0
12:52 pm 12:52 Mostly Cloudy 65 18.3 28 -2.2 25 25 Calm 30.36 1028 10 16.0934 0 0
1:52 pm 13:52 Mostly Cloudy 66 18.9 24 -4.4 20 20 ESE 3 6 30.34 1027 10 16.0934 0 0
2:52 pm 14:52 Partly Cloudy 68 20 35 1.7 30 30 SSE 7 11 30.31 1026 10 16.0934 0 0
3:52 pm 15:52 Partly Cloudy 69 20.6 38 3.3 32 32 SSE 9 15 30.28 1025 10 16.0934 0 0
4:52 pm 16:52 Mostly Cloudy 70 21.1 34 1.1 27 27 SSE 6 9 30.26 1025 10 16.0934 0 0
5:52 pm 17:52 Mostly Cloudy 69 20.6 38 3.3 32 32 S 8 13 30.27 1025 10 16.0934 0 0
6:52 pm 18:52 Mostly Cloudy 66 18.9 41 5 40 40 S 7 11 30.27 1025 10 16.0934 0 0
7:52 pm 19:52 Mostly Cloudy 64 17.8 35 1.7 34 34 ESE 10 17 30.28 1025 10 16.0934 0 0
8:52 pm 20:52 Mostly Cloudy 61 16.1 35 1.7 38 38 SSE 10 17 30.3 1026 10 16.0934 0 0
9:52 pm 21:52 Partly Cloudy 58 14.4 33 0.6 39 39 S 9 15 30.32 1027 10 16.0934 0 0
10:52 pm 22:52 Mostly Clear 57 13.9 34 1.1 42 42 SSE 10 17 30.32 1027 10 16.0934 0 0
11:52 pm 23:52 Mostly Clear 55 12.8 37 2.8 51 51 S 7 11 30.31 1027 10 16.0934 0 0

Powered by AerisWeather